Location: Oroua River
(40.4333°S, 175.4333°E)
Time: 13:53:11
(UTC+00:00)

Cosmos 1782 Rocket - Pass Details

Date: 03 February 2023
Orbit: 605 x 631 km, 82.5° (Epoch: 22 March)

Event Time Altitude Azimuth Distance (km) Brightness Sun altitude
Rises 14:58:27 0° 187° (S) 2,905 7.7 -23.7°
Reaches altitude 10° 15:00:42 10° 185° (S) 1,991 6.7 -23.4°
Maximum altitude 15:05:06 76° 98° (E) 637 3.6 -22.9°
Enters shadow 15:05:59 55° 28° (NNE) 740 3.7 -22.8°
